Regional Weather Roundup
Issued by NWS Memphis, TN

Home | Current Version | Previous Version | Text Only | Print | Product List | Glossary On
Versions: 1 2 3 4 5 6 7 8 9 10 11 12 13 14 15 16 17 18 19 20 21 22 23 24 25 26 27 28 29 30 31 32 33 34 35 36 37 38 39 40 41 42 43 44 45 46 47 48 49 50
000
ASUS44 KMEG 162210
RWRMEG
MEMPHIS CWA HOURLY WEATHER ROUNDUP
NATIONAL WEATHER SERVICE MEMPHIS TN
500 PM CDT MON OCT 16 2017

...WEST TENNESSEE...

CITY           SKY/WX    TMP DP  RH WIND       PRES   REMARKS
MEMPHIS INTL   SUNNY     66  37  34 NE12      30.28S
NWS MEMPHIS      N/A     65 N/A N/A MISG        N/A
JACKSON        SUNNY     66  42  41 N12       30.28S
COVINGTON      SUNNY     64  37  36 NE12      30.28F
BOLIVAR        SUNNY     64  41  42 VRB5G12   30.26S
LEXINGTON      SUNNY     63  41  45 VRB7G14   30.27R
SELMER         SUNNY     63  43  48 N8        30.26R
SAVANNAH       SUNNY     64  43  45 N8G15     30.25R
UNION CITY     SUNNY     64  37  36 N10       30.28S
PARIS          SUNNY     63  39  42 NE12      30.28S
HUNTINGDON     SUNNY     63  41  45 N6G13     30.27S


...EASTERN ARKANSAS...

CITY           SKY/WX    TMP DP  RH WIND       PRES   REMARKS
JONESBORO      SUNNY     68  40  35 VRB5      30.30S
WEST MEMPHIS   SUNNY     66  35  31 NE13      30.27F
BATESVILLE     SUNNY     67  36  31 NE7       30.30F
NEWPORT        SUNNY     67  37  33 N9        30.31S
WALNUT RIDGE   SUNNY     67  36  31 NE7       30.30F
BLYTHEVILLE    SUNNY     66  38  35 N10       30.30S
NW BLYTHEVILLE SUNNY     64  36  34 N13G25    30.30S
SEARCY         SUNNY     68  38  33 E12       30.30
STUTTGART      SUNNY     66  41  40 N10       30.30S
PINE BLUFF     SUNNY     67  38  34 NE15      30.29S
MONTICELLO     SUNNY     68  39  34 NE7       30.27S


...NORTH MISSISSIPPI...

CITY           SKY/WX    TMP DP  RH WIND       PRES   REMARKS
TUPELO         SUNNY     66  39  37 N15G22    30.23S
OXFORD         SUNNY     64  39  39 NE9G16    30.26S
BATESVILLE     SUNNY     66  38  35 N7        30.26S
OLIVE BRANCH   SUNNY    N/A N/A N/A N10G18    30.26S
TUNICA           N/A    N/A N/A N/A N13       30.28S
CLARKSDALE       N/A     66  41  39 N15       30.26F
CORINTH        SUNNY     64  41  42 N9        30.25R
GREENWOOD      SUNNY     69  42  37 NE14      30.22S
COLUMBUS       SUNNY     67  49  51 NW14G20   30.19S
STARKVILLE     SUNNY     66  43  42 N9G17     30.21S
GOLDEN TRIANGL SUNNY     67  46  47 N14G23    30.20R


...SOUTHEAST MISSOURI...

CITY           SKY/WX    TMP DP  RH WIND       PRES   REMARKS
KENNETT        SUNNY     66  37  34 NE10G17   30.29S
MALDEN         SUNNY     68  34  28 N8        30.32S
WEST PLAINS    SUNNY     67  31  26 CALM      30.31F
POPLAR BLUFF   SUNNY     67  36  31 NE7       30.30F
CAPE GIRARDEAU SUNNY     65  35  33 N10       30.31S


...NORTHWEST ALABAMA...

CITY           SKY/WX    TMP DP  RH WIND       PRES   REMARKS
MUSCLE SHOALS  SUNNY     66  40  38 N13       30.24R


...MIDDLE TENNESSEE...

CITY           SKY/WX    TMP DP  RH WIND       PRES   REMARKS
NASHVILLE      MOSUNNY   64  40  41 N15       30.26S
CLARKSVILLE    SUNNY     63  38  39 N13       30.28F
COLUMBIA       SUNNY     64  39  39 NE10      30.23S


...WESTERN KENTUCKY...

CITY           SKY/WX    TMP DP  RH WIND       PRES   REMARKS
PADUCAH        SUNNY     65  34  31 N10       30.29F
FORT CAMPBELL  SUNNY     62  38  41 N12       30.28S


...CENTRAL ARKANSAS...

CITY           SKY/WX    TMP DP  RH WIND       PRES   REMARKS
LITTLE ROCK    MOSUNNY   67  37  33 NE13      30.30S


SKY/WX REPORTED AS FAIR MEANS FEW OR NO CLOUDS BELOW
12 THOUSAND FEET.





USA.gov is the U.S. government's official web portal to all federal, state and local government web resources and services.